N0MPM-4 Weather Reports


time (UTC)temp
C
wind
direction
speed
KPH
gust
KPH
rain 1hr
cm
rain 24hr
cm
rain mn
cm
humidity
%
barometer
mb
20260507223927 20 274 0.0 4.8 0.00 0.05 0.05 34 1009.4
20260507223427 20 296 0.0 4.8 0.00 0.05 0.05 34 1009.5
20260507222927 20 308 0.0 1.6 0.00 0.05 0.05 34 1009.5
20260507222427 20 307 1.6 6.4 0.00 0.05 0.05 34 1009.6
20260507221927 19 248 1.6 8.0 0.00 0.05 0.05 36 1009.6
20260507221427 18 296 1.6 8.0 0.00 0.05 0.05 36 1009.7
20260507220928 18 278 3.2 6.4 0.00 0.05 0.05 36 1009.7
20260507220427 19 264 3.2 8.0 0.00 0.05 0.05 36 1009.7
20260507215928 20 300 1.6 11.3 0.00 0.05 0.05 34 1009.7
20260507215428 20 277 1.6 0.0 0.00 0.05 0.05 36 1009.8
20260507214928 20 262 4.8 9.7 0.00 0.05 0.05 36 1009.9
20260507214428 19 184 4.8 11.3 0.00 0.05 0.05 38 1009.9
20260507213928 19 217 4.8 14.5 0.00 0.05 0.05 38 1010.1
20260507213428 19 287 3.2 11.3 0.00 0.05 0.05 38 1010.1
20260507212928 19 284 1.6 9.7 0.00 0.05 0.05 41 1010.1
20260507212428 19 268 3.2 9.7 0.00 0.05 0.05 38 1010.1
20260507211928 19 293 3.2 11.3 0.00 0.05 0.05 39 1010.1
20260507211428 19 267 3.2 11.3 0.00 0.05 0.05 39 1010.1
20260507210928 18 287 1.6 4.8 0.00 0.05 0.05 40 1010.1
20260507210428 18 245 0.0 0.0 0.00 0.05 0.05 40 1010.2
20260507205928 18 276 1.6 0.0 0.00 0.05 0.05 40 1010.3
20260507205428 18 231 1.6 4.8 0.00 0.05 0.05 39 1010.2
20260507204928 18 266 1.6 6.4 0.00 0.05 0.05 39 1010.3
20260507204428 19 274 1.6 9.7 0.00 0.05 0.05 40 1010.2
20260507203928 19 231 1.6 6.4 0.00 0.05 0.05 42 1010.3
20260507203428 19 284 1.6 9.7 0.00 0.05 0.05 43 1010.4
20260507202928 20 269 1.6 9.7 0.00 0.05 0.05 40 1010.5
20260507202428 20 47 0.0 0.0 0.00 0.05 0.05 43 1010.6
20260507201928 19 120 0.0 4.8 0.00 0.05 0.05 48 1010.6
20260507201428 18 240 1.6 3.2 0.00 0.05 0.05 45 1010.7
20260507200928 18 233 3.2 12.9 0.00 0.05 0.05 42 1010.8
20260507200428 18 165 1.6 9.7 0.00 0.05 0.05 43 1010.9
20260507195928 18 221 1.6 3.2 0.00 0.05 0.05 43 1010.9
20260507195428 18 304 1.6 8.0 0.00 0.05 0.05 42 1010.9
20260507194928 18 307 3.2 6.4 0.00 0.05 0.05 44 1011.0
20260507194428 18 210 4.8 9.7 0.00 0.05 0.05 42 1011.1
20260507193928 18 274 4.8 12.9 0.00 0.05 0.05 41 1011.1
20260507193428 18 233 3.2 12.9 0.00 0.05 0.05 42 1011.1
20260507192928 18 248 1.6 14.5 0.00 0.05 0.05 44 1011.3
20260507192428 18 296 1.6 6.4 0.00 0.05 0.05 49 1011.3
20260507191928 18 277 3.2 8.0 0.00 0.05 0.05 45 1011.3
20260507191428 18 256 1.6 6.4 0.00 0.05 0.05 46 1011.3
20260507190928 18 226 0.0 6.4 0.00 0.05 0.05 45 1011.3
20260507190428 18 326 1.6 3.2 0.00 0.05 0.05 48 1011.5
20260507185928 18 297 0.0 6.4 0.00 0.05 0.05 48 1011.6
20260507185428 18 86 0.0 0.0 0.00 0.05 0.05 45 1011.6
20260507184928 18 150 0.0 4.8 0.00 0.05 0.05 51 1011.6
20260507184428 18 155 0.0 0.0 0.00 0.05 0.05 53 1011.7
20260507183928 17 235 0.0 4.8 0.00 0.05 0.05 55 1011.8
20260507183428 17 108 1.6 3.2 0.00 0.05 0.05 52 1011.8
20260507182928 16 304 4.8 8.0 0.00 0.05 0.05 50 1011.9
20260507182428 16 146 3.2 9.7 0.00 0.05 0.05 52 1012.0
20260507181928 17 190 0.0 4.8 0.00 0.05 0.05 53 1012.1
20260507181428 16 271 1.6 8.0 0.00 0.05 0.05 52 1012.2
20260507180929 16 263 0.0 6.4 0.00 0.05 0.05 51 1012.3
20260507180429 16 190 1.6 0.0 0.00 0.05 0.05 55 1012.4
20260507175929 16 192 1.6 8.0 0.00 0.05 0.05 54 1012.6
20260507175429 15 145 1.6 9.7 0.00 0.05 0.05 53 1012.7
20260507174929 15 266 1.6 8.0 0.00 0.05 0.05 56 1012.7
20260507174429 15 238 1.6 8.0 0.00 0.05 0.05 56 1012.9
20260507173929 14 174 1.6 8.0 0.00 0.05 0.05 58 1012.9
20260507173429 14 274 1.6 8.0 0.00 0.05 0.05 60 1013.1
20260507172929 13 210 1.6 4.8 0.00 0.05 0.05 62 1013.2
20260507172429 13 300 1.6 4.8 0.00 0.05 0.05 60 1013.4
20260507171929 13 239 1.6 8.0 0.00 0.05 0.05 60 1013.6
20260507171429 12 134 1.6 1.6 0.00 0.05 0.05 64 1013.6
20260507170929 12 137 1.6 4.8 0.00 0.05 0.05 65 1013.6
20260507170429 12 201 0.0 6.4 0.00 0.05 0.05 65 1013.5
20260507165929 11 221 0.0 3.2 0.00 0.05 0.05 67 1013.5
20260507165429 11 158 0.0 3.2 0.00 0.05 0.05 66 1013.6
20260507164929 11 276 0.0 0.0 0.00 0.05 0.05 67 1013.9
20260507164429 10 166 1.6 1.6 0.00 0.05 0.05 68 1013.7
20260507163929 10 151 3.2 8.0 0.00 0.05 0.05 68 1013.8
20260507163429 10 214 3.2 9.7 0.00 0.05 0.05 69 1013.8
20260507162929 10 191 1.6 8.0 0.00 0.05 0.05 69 1013.9
20260507162429 10 240 0.0 3.2 0.00 0.05 0.05 70 1014.2
20260507161929 10 290 0.0 0.0 0.00 0.05 0.05 70 1014.2
20260507161429 10 282 0.0 0.0 0.00 0.05 0.05 71 1014.2
20260507160929 10 221 0.0 0.0 0.00 0.05 0.05 71 1014.0
20260507160429 10 291 0.0 0.0 0.00 0.05 0.05 72 1014.2
20260507155929 10 291 1.6 1.6 0.00 0.05 0.05 72 1014.1
20260507155429 10 294 3.2 6.4 0.00 0.05 0.05 72 1014.1
20260507154929 10 273 4.8 9.7 0.00 0.05 0.05 71 1014.1
20260507154429 10 208 4.8 14.5 0.03 0.05 0.05 71 1014.1
20260507153929 10 256 3.2 9.7 0.03 0.05 0.05 72 1014.2
20260507153653 10 226 1.6 8.0 0.03 0.05 0.05 72 1014.0
20260507153429 10 226 1.6 8.0 0.03 0.05 0.05 72 1014.0
20260507153256 10 210 1.6 6.4 0.03 0.05 0.05 73 1014.0
20260507152929 10 210 1.6 6.4 0.03 0.05 0.05 73 1014.0
20260507152429 10 139 0.0 4.8 0.03 0.05 0.05 74 1013.9
20260507151929 9 221 0.0 3.2 0.03 0.05 0.05 73 1014.1
20260507151429 9 231 0.0 0.0 0.03 0.05 0.05 74 1014.0
20260507150929 9 255 0.0 0.0 0.03 0.05 0.05 76 1014.2
20260507150429 8 302 0.0 0.0 0.03 0.05 0.05 77 1014.5
20260507145929 8 304 0.0 0.0 0.03 0.05 0.05 77 1014.6
20260507145429 8 282 0.0 0.0 0.03 0.05 0.05 78 1014.8
20260507144929 8 284 0.0 0.0 0.05 0.05 0.05 76 1014.9
20260507144429 8 280 0.0 6.4 0.03 0.03 0.03 79 1014.9
20260507143930 7 238 1.6 0.0 0.03 0.03 0.03 79 1014.9
20260507143429 7 238 1.6 8.0 0.03 0.03 0.03 79 1014.9
20260507142929 7 259 1.6 9.7 0.03 0.03 0.03 79 1014.4
20260507142429 7 193 0.0 0.0 0.03 0.03 0.03 79 1014.1
20260507141930 7 113 0.0 0.0 0.03 0.03 0.03 78 1014.0
20260507141430 7 163 0.0 3.2 0.03 0.03 0.03 77 1014.2
20260507140930 7 226 0.0 6.4 0.03 0.03 0.03 76 1014.6
20260507140430 7 262 0.0 0.0 0.03 0.03 0.03 73 1014.9
20260507135930 7 104 0.0 0.0 0.03 0.03 0.03 71 1014.3
20260507135430 7 336 0.0 1.6 0.03 0.03 0.03 69 1014.8
20260507134930 7 307 0.0 0.0 0.00 0.00 0.00 66 1015.3
20260507134430 7 302 0.0 3.2 0.00 0.00 0.00 64 1015.0
20260507133930 7 301 0.0 3.2 0.00 0.00 0.00 64 1015.0
20260507133430 7 292 0.0 0.0 0.00 0.00 0.00 64 1014.5
20260507132930 7 292 0.0 0.0 0.00 0.00 0.00 64 1014.5
20260507132430 8 309 0.0 0.0 0.00 0.00 0.00 64 1014.5
20260507131930 8 310 0.0 0.0 0.00 0.00 0.00 64 1014.5
20260507131430 8 311 0.0 0.0 0.00 0.00 0.00 65 1014.2
20260507130930 8 312 0.0 4.8 0.00 0.00 0.00 65 1014.3
20260507130430 8 310 0.0 4.8 0.00 0.00 0.00 65 1014.3
20260507125930 8 303 0.0 8.0 0.00 0.00 0.00 65 1014.3
20260507125430 8 276 1.6 4.8 0.00 0.00 0.00 64 1014.0
20260507124930 8 343 3.2 9.7 0.00 0.00 0.00 65 1014.2
20260507124430 8 293 4.8 9.7 0.00 0.00 0.00 65 1013.8
20260507123930 7 257 6.4 14.5 0.00 0.00 0.00 65 1013.7
20260507123430 7 255 6.4 12.9 0.00 0.00 0.00 65 1013.5
20260507122930 7 226 6.4 12.9 0.00 0.00 0.00 65 1013.5
20260507122430 7 239 4.8 14.5 0.00 0.00 0.00 64 1013.4
20260507121930 7 241 3.2 12.9 0.00 0.00 0.00 63 1013.4
20260507121430 7 160 3.2 9.7 0.00 0.00 0.00 64 1013.3
20260507120930 6 210 3.2 8.0 0.00 0.00 0.00 64 1013.4
20260507120430 6 159 3.2 8.0 0.00 0.00 0.00 64 1013.3
20260507115930 6 217 3.2 9.7 0.00 0.00 0.00 64 1013.3
20260507115430 6 245 1.6 8.0 0.00 0.00 0.00 64 1013.3
20260507114930 6 165 1.6 8.0 0.00 0.00 0.00 64 1013.3
20260507114430 6 216 1.6 3.2 0.00 0.00 0.00 64 1013.3
20260507113930 6 226 3.2 8.0 0.00 0.00 0.00 63 1013.3
20260507113430 6 215 4.8 9.7 0.00 0.00 0.00 63 1013.3
20260507112930 6 212 4.8 11.3 0.00 0.00 0.00 62 1013.4
20260507112430 6 163 3.2 9.7 0.00 0.00 0.00 62 1013.4
20260507111930 6 221 3.2 8.0 0.00 0.00 0.00 62 1013.4
20260507111430 6 140 1.6 6.4 0.00 0.00 0.00 62 1013.5
20260507110930 6 149 1.6 6.4 0.00 0.00 0.00 61 1013.5
20260507110430 6 143 1.6 6.4 0.00 0.00 0.00 61 1013.5
20260507105930 6 170 0.0 1.6 0.00 0.00 0.00 61 1013.5
20260507105430 6 123 0.0 0.0 0.00 0.00 0.00 61 1013.6
20260507104930 6 166 0.0 0.0 0.00 0.00 0.00 61 1013.6
20260507104430 6 138 0.0 0.0 0.00 0.00 0.00 61 1013.7
20260507103930 6 114 0.0 0.0 0.00 0.00 0.00 61 1013.8
20260507103431 6 145 0.0 0.0 0.00 0.00 0.00 61 1013.9
20260507102930 6 143 0.0 0.0 0.00 0.00 0.00 61 1014.0
20260507102431 6 139 0.0 0.0 0.00 0.00 0.00 62 1014.1
20260507101931 6 139 0.0 0.0 0.00 0.00 0.00 62 1014.3
20260507101431 6 135 0.0 0.0 0.00 0.00 0.00 62 1014.5
20260507100931 6 134 0.0 1.6 0.00 0.00 0.00 62 1014.6
20260507100431 6 205 0.0 4.8 0.00 0.00 0.00 62 1014.6
20260507095931 6 150 0.0 0.0 0.00 0.00 0.00 62 1014.7
20260507095431 6 191 1.6 3.2 0.00 0.00 0.00 62 1014.7
20260507094931 6 214 1.6 3.2 0.00 0.00 0.00 62 1014.7
20260507094431 6 242 1.6 6.4 0.00 0.00 0.00 62 1014.7
20260507093931 5 198 0.0 8.0 0.00 0.00 0.00 62 1014.9
20260507093431 5 200 0.0 1.6 0.00 0.00 0.00 60 1014.7
20260507092931 5 159 0.0 1.6 0.00 0.00 0.00 60 1014.7
20260507092431 5 141 0.0 3.2 0.00 0.00 0.00 61 1014.8
20260507091931 5 136 0.0 0.0 0.00 0.00 0.00 61 1014.8
20260507091431 5 248 0.0 0.0 0.00 0.00 0.00 61 1014.9
20260507090931 5 148 0.0 1.6 0.00 0.00 0.00 61 1015.0
20260507090431 5 205 0.0 1.6 0.00 0.00 0.00 62 1015.1
20260507085931 5 214 0.0 1.6 0.00 0.00 0.00 62 1015.2
20260507085431 5 139 0.0 1.6 0.00 0.00 0.00 62 1015.1
20260507084931 5 146 0.0 0.0 0.00 0.00 0.00 62 1015.2
20260507084431 5 149 0.0 1.6 0.00 0.00 0.00 62 1015.2
20260507083931 5 155 0.0 0.0 0.00 0.00 0.00 62 1015.2
20260507083431 5 146 0.0 1.6 0.00 0.00 0.00 62 1015.2
20260507082931 5 233 0.0 0.0 0.00 0.00 0.00 62 1015.3
20260507082431 5 152 0.0 0.0 0.00 0.00 0.00 62 1015.3
20260507081931 5 146 0.0 0.0 0.00 0.00 0.00 62 1015.4
20260507081431 5 200 0.0 0.0 0.00 0.00 0.00 63 1015.4
20260507080931 5 201 0.0 0.0 0.00 0.00 0.00 62 1015.3
20260507080432 5 194 0.0 0.0 0.00 0.00 0.00 62 1015.4
20260507075931 5 229 0.0 0.0 0.00 0.00 0.00 63 1015.4
20260507075431 5 150 0.0 0.0 0.00 0.00 0.00 63 1015.4
20260507074931 5 136 0.0 0.0 0.00 0.00 0.00 62 1015.5
20260507074431 5 139 0.0 0.0 0.00 0.00 0.00 62 1015.5
20260507073931 5 150 0.0 0.0 0.00 0.00 0.00 62 1015.6
20260507073431 5 148 0.0 0.0 0.00 0.00 0.00 62 1015.7
20260507072931 5 215 0.0 0.0 0.00 0.00 0.00 63 1015.7
20260507072431 5 141 0.0 0.0 0.00 0.00 0.00 62 1015.7
20260507071931 5 196 0.0 0.0 0.00 0.00 0.00 63 1015.7
20260507071431 5 150 0.0 0.0 0.00 0.00 0.00 63 1015.8
20260507070931 5 144 0.0 0.0 0.00 0.00 0.00 63 1015.9
20260507070431 5 131 0.0 1.6 0.00 0.00 0.00 64 1016.0
20260507065931 5 205 0.0 4.8 0.00 0.00 0.00 64 1016.0
20260507065431 5 203 0.0 0.0 0.00 0.00 0.00 64 1016.1
20260507064931 5 141 0.0 0.0 0.00 0.00 0.00 63 1016.1
20260507064432 5 144 0.0 0.0 0.00 0.00 0.00 63 1016.1
20260507063932 5 160 0.0 0.0 0.00 0.00 0.00 63 1016.1
20260507063432 5 146 0.0 3.2 0.00 0.00 0.00 62 1016.1
20260507062932 5 221 0.0 3.2 0.00 0.00 0.00 62 1016.1
20260507062432 5 184 0.0 1.6 0.00 0.00 0.00 62 1016.1
20260507061932 5 143 0.0 0.0 0.00 0.00 0.00 61 1016.2
20260507061432 5 185 0.0 0.0 0.00 0.00 0.00 62 1016.3
20260507060932 5 148 0.0 1.6 0.00 0.00 0.00 62 1016.3
20260507060432 5 145 0.0 1.6 0.00 0.00 0.00 62 1016.3
20260507055932 5 150 0.0 0.0 0.00 0.00 0.00 62 1016.4
20260507055432 5 150 0.0 0.0 0.00 0.00 0.00 62 1016.4
20260507054932 5 158 0.0 0.0 0.00 0.00 0.00 62 1016.4
20260507054432 5 138 0.0 0.0 0.00 0.00 0.00 62 1016.4
20260507053932 5 161 0.0 0.0 0.00 0.00 0.00 63 1016.5
20260507053432 5 155 0.0 0.0 0.00 0.00 0.00 63 1016.5
20260507052932 5 152 0.0 0.0 0.00 0.00 0.00 64 1016.6
20260507052432 5 159 0.0 0.0 0.00 0.00 0.00 65 1016.6
20260507051932 5 159 0.0 0.0 0.00 0.00 0.00 66 1016.6
20260507051432 5 161 0.0 0.0 0.00 0.00 0.00 67 1016.6
20260507050932 5 160 0.0 0.0 0.00 0.00 0.00 66 1016.6
20260507050432 5 165 0.0 0.0 0.00 0.00 0.00 67 1016.6
20260507045932 4 172 0.0 0.0 0.00 0.00 0.00 69 1016.6
20260507045432 4 149 0.0 0.0 0.00 0.00 0.00 71 1016.7
20260507044932 3 155 0.0 0.0 0.00 0.00 0.00 74 1016.7
20260507044432 3 155 0.0 0.0 0.00 0.00 0.00 75 1016.6
20260507043932 3 155 0.0 0.0 0.00 0.00 0.00 76 1016.7
20260507043432 2 298 0.0 0.0 0.00 0.00 0.00 75 1016.8
20260507042932 2 298 0.0 0.0 0.00 0.00 0.00 75 1016.8
20260507042432 3 298 0.0 0.0 0.00 0.00 0.00 75 1016.8
20260507041932 3 298 0.0 0.0 0.00 0.00 0.00 75 1016.8
20260507041432 3 298 0.0 0.0 0.00 0.00 0.00 75 1016.8
20260507040932 3 298 0.0 0.0 0.00 0.00 0.00 76 1016.9
20260507040432 3 298 0.0 0.0 0.00 0.00 0.00 76 1016.8
20260507035932 3 298 0.0 0.0 0.00 0.00 0.00 75 1016.8
20260507035432 3 298 0.0 0.0 0.00 0.00 0.00 74 1016.9
20260507034932 3 298 0.0 0.0 0.00 0.00 0.00 73 1016.9
20260507034432 3 297 0.0 0.0 0.00 0.00 0.00 73 1016.9
20260507033932 3 298 0.0 0.0 0.00 0.00 0.00 72 1017.0
20260507033432 3 298 0.0 0.0 0.00 0.00 0.00 71 1016.9
20260507032932 3 298 0.0 0.0 0.00 0.00 0.00 71 1017.0
20260507032432 3 298 0.0 0.0 0.00 0.00 0.00 70 1017.0
20260507031932 3 296 0.0 0.0 0.00 0.00 0.00 70 1017.1
20260507031432 3 296 0.0 0.0 0.00 0.00 0.00 69 1017.1
20260507030932 4 296 0.0 0.0 0.00 0.00 0.00 67 1017.0
20260507030432 4 297 0.0 0.0 0.00 0.00 0.00 66 1017.0
20260507025933 5 298 0.0 0.0 0.00 0.00 0.00 65 1017.0
20260507025433 5 298 0.0 0.0 0.00 0.00 0.00 65 1017.0
20260507024933 5 297 0.0 0.0 0.00 0.00 0.00 63 1017.0
20260507024433 5 297 0.0 0.0 0.00 0.00 0.00 60 1016.9
20260507023933 5 296 0.0 0.0 0.00 0.00 0.00 59 1016.9
20260507023433 6 296 0.0 0.0 0.00 0.00 0.00 57 1016.9
20260507022933 6 297 0.0 0.0 0.00 0.00 0.00 56 1016.9
20260507022433 6 296 0.0 0.0 0.00 0.00 0.00 55 1017.0
20260507021933 7 297 0.0 0.0 0.00 0.00 0.00 54 1016.9
20260507021433 7 296 0.0 0.0 0.00 0.00 0.00 53 1016.9
20260507020933 7 298 0.0 0.0 0.00 0.00 0.00 48 1016.8
20260507020433 7 298 0.0 0.0 0.00 0.00 0.00 47 1016.8
20260507015933 8 297 0.0 0.0 0.00 0.00 0.00 44 1016.8
20260507015433 8 298 0.0 0.0 0.00 0.00 0.00 43 1016.8
20260507014933 8 298 0.0 0.0 0.00 0.00 0.00 43 1016.7
20260507014433 9 298 0.0 0.0 0.00 0.00 0.00 41 1016.7
20260507013933 10 298 0.0 0.0 0.00 0.00 0.00 41 1016.7
20260507013433 10 298 0.0 0.0 0.00 0.00 0.00 39 1016.7
20260507012933 10 298 0.0 0.0 0.00 0.00 0.00 38 1016.6
20260507012433 10 297 0.0 0.0 0.00 0.00 0.00 37 1016.6
20260507011933 10 298 0.0 0.0 0.00 0.00 0.00 36 1016.6
20260507011433 11 298 0.0 0.0 0.00 0.00 0.00 36 1016.6
20260507010933 11 298 0.0 0.0 0.00 0.00 0.00 35 1016.5
20260507010433 11 298 0.0 3.2 0.00 0.00 0.00 34 1016.6
20260507005933 11 304 0.0 6.4 0.00 0.00 0.00 34 1016.6
20260507005433 11 304 1.6 4.8 0.00 0.00 0.00 33 1016.5
20260507004933 12 283 1.6 8.0 0.00 0.00 0.00 33 1016.6
20260507004433 12 300 3.2 8.0 0.00 0.00 0.00 33 1016.6
20260507003933 12 300 3.2 9.7 0.00 0.00 0.00 32 1016.7
20260507003433 12 285 1.6 6.4 0.00 0.00 0.00 32 1016.7
20260507002933 13 304 1.6 8.0 0.00 0.00 0.00 32 1016.6
20260507002433 13 307 1.6 6.4 0.00 0.00 0.00 32 1016.6
20260507001933 13 307 1.6 8.0 0.00 0.00 0.00 31 1016.6
20260507001433 13 297 4.8 8.0 0.00 0.00 0.00 32 1016.6
20260507000933 13 293 8.0 9.7 0.00 0.00 0.00 31 1016.6
20260507000435 13 297 6.4 19.3 0.00 0.00 0.00 30 1016.6
20260506235933 13 307 4.8 6.4 0.00 0.00 0.00 30 1016.6
20260506235433 13 333 4.8 6.4 0.00 0.00 0.00 30 1016.6
20260506234933 13 298 6.4 6.4 0.00 0.00 0.00 31 1016.6
20260506234433 13 298 6.4 12.9 0.00 0.00 0.00 31 1016.7
20260506233933 13 323 6.4 14.5 0.00 0.00 0.00 31 1016.6
20260506233433 13 286 8.0 17.7 0.00 0.00 0.00 30 1016.9
20260506232933 13 281 6.4 19.3 0.00 0.00 0.00 30 1016.9
20260506232433 13 293 6.4 12.9 0.00 0.00 0.00 32 1016.9
20260506231933 13 302 4.8 17.7 0.00 0.00 0.00 30 1017.0
20260506231433 13 308 3.2 9.7 0.00 0.00 0.00 32 1016.9
20260506230933 13 358 4.8 12.9 0.00 0.00 0.00 30 1016.9
20260506230434 13 315 8.0 16.1 0.00 0.00 0.00 32 1017.0
20260506225934 13 300 9.7 20.9 0.00 0.00 0.00 30 1017.2
20260506225434 13 301 9.7 22.5 0.00 0.00 0.00 30 1017.1
20260506224934 13 305 9.7 27.4 0.00 0.00 0.00 29 1017.1
20260506224434 13 307 8.0 16.1 0.00 0.00 0.00 31 1017.1